| time (UTC) | temp C | wind direction | speed KPH | gust KPH | rain 1hr cm | rain 24hr cm | rain mn cm | humidity % | barometer mb |
| 20260906125549 | 21 | 100 | 3.2 | 3.2 | 0.00 | 0.00 | 0.00 | 99 | 1011.1 |
| 20260906125048 | 21 | 73 | 1.6 | 1.6 | 0.00 | 0.00 | 0.00 | 99 | 1011.2 |
| 20260906124544 | 21 | 88 | 3.2 | 3.2 | 0.00 | 0.00 | 0.00 | 99 | 1011.0 |
| 20260906124039 | 21 | 69 | 3.2 | 3.2 | 0.00 | 0.00 | 0.00 | 99 | 1011.1 |
| 20260906123538 | 21 | 101 | 4.8 | 4.8 | 0.00 | 0.00 | 0.00 | 99 | 1010.9 |
| 20260906123034 | 21 | 75 | 1.6 | 1.6 | 0.00 | 0.00 | 0.00 | 99 | 1011.1 |
| 20260906122533 | 21 | 83 | 1.6 | 1.6 | 0.00 | 0.00 | 0.00 | 99 | 1011.0 |
| 20260906122029 | 21 | 72 | 0.0 | 0.0 | 0.00 | 0.00 | 0.00 | 99 | 1010.9 |
| 20260906121525 | 21 | 59 | 1.6 | 1.6 | 0.00 | 0.00 | 0.00 | 99 | 1010.9 |
| 20260906121021 | 21 | 66 | 0.0 | 0.0 | 0.00 | 0.00 | 0.00 | 99 | 1011.0 |
| 20260906120522 | 21 | 78 | 3.2 | 3.2 | 0.00 | 0.00 | 0.00 | 99 | 1010.8 |
| 20260906120019 | 21 | 76 | 1.6 | 1.6 | 0.00 | 0.00 | 0.00 | 99 | 1010.8 |
| 20260906115514 | 21 | 66 | 1.6 | 3.2 | 0.00 | 0.00 | 0.00 | 99 | 1010.6 |
| 20260906115008 | 21 | 60 | 3.2 | 4.8 | 0.00 | 0.00 | 0.00 | 99 | 1010.6 |
| 20260906114502 | 21 | 64 | 0.0 | 1.6 | 0.00 | 0.00 | 0.00 | 99 | 1010.4 |
| 20260906113958 | 21 | 110 | 1.6 | 3.2 | 0.00 | 0.00 | 0.00 | 99 | 1010.4 |
| 20260906113456 | 21 | 108 | 3.2 | 3.2 | 0.00 | 0.00 | 0.00 | 99 | 1010.6 |
| 20260906112952 | 21 | 86 | 0.0 | 0.0 | 0.00 | 0.00 | 0.00 | 99 | 1010.2 |
| 20260906112447 | 21 | 80 | 1.6 | 1.6 | 0.00 | 0.00 | 0.00 | 99 | 1010.3 |
| 20260906111943 | 21 | 88 | 1.6 | 3.2 | 0.00 | 0.00 | 0.00 | 99 | 1010.1 |
| 20260906111442 | 21 | 67 | 0.0 | 1.6 | 0.00 | 0.00 | 0.00 | 99 | 1010.0 |
| 20260906110938 | 21 | 72 | 0.0 | 0.0 | 0.00 | 0.00 | 0.00 | 99 | 1010.2 |
| 20260906110433 | 21 | 69 | 0.0 | 0.0 | 0.00 | 0.00 | 0.00 | 99 | 1009.9 |
| 20260906105932 | 21 | 82 | 1.6 | 3.2 | 0.00 | 0.00 | 0.00 | 99 | 1009.9 |
| 20260906105428 | 21 | 84 | 3.2 | 3.2 | 0.00 | 0.00 | 0.00 | 99 | 1009.9 |
| 20260906104924 | 21 | 88 | 0.0 | 0.0 | 0.00 | 0.00 | 0.00 | 99 | 1009.8 |
| 20260906104422 | 21 | 70 | 0.0 | 0.0 | 0.00 | 0.00 | 0.00 | 99 | 1009.5 |
| 20260906103922 | 21 | 65 | 0.0 | 0.0 | 0.00 | 0.00 | 0.00 | 99 | 1009.5 |
| 20260906103420 | 21 | 65 | 0.0 | 0.0 | 0.00 | 0.00 | 0.00 | 99 | 1009.4 |
| 20260906102916 | 21 | 70 | 0.0 | 0.0 | 0.00 | 0.00 | 0.00 | 99 | 1009.4 |
| 20260906102415 | 21 | 80 | 0.0 | 0.0 | 0.00 | 0.00 | 0.00 | 99 | 1009.2 |
| 20260906101910 | 21 | 59 | 1.6 | 1.6 | 0.00 | 0.00 | 0.00 | 99 | 1009.3 |
| 20260906101405 | 21 | 56 | 3.2 | 3.2 | 0.00 | 0.00 | 0.00 | 99 | 1009.1 |
| 20260906100901 | 21 | 54 | 4.8 | 4.8 | 0.00 | 0.00 | 0.00 | 99 | 1009.0 |
| 20260906100400 | 21 | 71 | 0.0 | 0.0 | 0.00 | 0.00 | 0.00 | 99 | 1009.0 |
| 20260906095855 | 21 | 142 | 4.8 | 4.8 | 0.00 | 0.00 | 0.00 | 99 | 1009.1 |
| 20260906095350 | 21 | 123 | 4.8 | 4.8 | 0.00 | 0.00 | 0.00 | 99 | 1009.1 |
| 20260906094850 | 21 | 106 | 3.2 | 3.2 | 0.00 | 0.00 | 0.00 | 99 | 1009.1 |
| 20260906094345 | 21 | 96 | 3.2 | 3.2 | 0.00 | 0.00 | 0.00 | 99 | 1009.0 |
| 20260906093841 | 21 | 71 | 0.0 | 0.0 | 0.00 | 0.00 | 0.00 | 99 | 1008.9 |
| 20260906093337 | 21 | 59 | 0.0 | 0.0 | 0.00 | 0.00 | 0.00 | 99 | 1009.0 |
| 20260906092831 | 21 | 64 | 0.0 | 0.0 | 0.00 | 0.00 | 0.00 | 99 | 1009.0 |
| 20260906092331 | 21 | 65 | 0.0 | 0.0 | 0.00 | 0.00 | 0.00 | 99 | 1009.0 |
| 20260906091827 | 21 | 67 | 0.0 | 0.0 | 0.00 | 0.00 | 0.00 | 99 | 1008.9 |
| 20260906091323 | 21 | 70 | 0.0 | 0.0 | 0.00 | 0.00 | 0.00 | 99 | 1009.1 |
| 20260906090820 | 21 | 72 | 0.0 | 0.0 | 0.00 | 0.00 | 0.00 | 99 | 1009.4 |
| 20260906090318 | 21 | 74 | 0.0 | 1.6 | 0.00 | 0.00 | 0.00 | 99 | 1009.1 |
| 20260906085813 | 21 | 83 | 3.2 | 3.2 | 0.00 | 0.00 | 0.00 | 99 | 1009.2 |
| 20260906085311 | 21 | 83 | 3.2 | 3.2 | 0.00 | 0.00 | 0.00 | 99 | 1009.1 |
| 20260906084807 | 21 | 122 | 4.8 | 4.8 | 0.00 | 0.00 | 0.00 | 99 | 1008.8 |
| 20260906084306 | 22 | 83 | 0.0 | 0.0 | 0.00 | 0.00 | 0.00 | 99 | 1008.9 |
| 20260906083801 | 22 | 73 | 0.0 | 0.0 | 0.00 | 0.00 | 0.00 | 99 | 1009.0 |
| 20260906083257 | 22 | 70 | 0.0 | 0.0 | 0.00 | 0.00 | 0.00 | 99 | 1009.1 |
| 20260906082751 | 22 | 77 | 0.0 | 0.0 | 0.00 | 0.00 | 0.00 | 99 | 1009.2 |
| 20260906082246 | 22 | 45 | 3.2 | 3.2 | 0.00 | 0.00 | 0.00 | 99 | 1009.2 |
| 20260906081742 | 22 | 80 | 1.6 | 1.6 | 0.00 | 0.00 | 0.00 | 99 | 1009.3 |
| 20260906081237 | 22 | 79 | 0.0 | 0.0 | 0.00 | 0.00 | 0.00 | 99 | 1009.2 |
| 20260906080734 | 22 | 73 | 0.0 | 0.0 | 0.00 | 0.00 | 0.00 | 99 | 1009.3 |
| 20260906080230 | 22 | 60 | 0.0 | 0.0 | 0.00 | 0.00 | 0.00 | 99 | 1009.1 |
| 20260906075730 | 22 | 67 | 0.0 | 0.0 | 0.00 | 0.00 | 0.00 | 99 | 1009.0 |
| 20260906075230 | 22 | 60 | 0.0 | 0.0 | 0.00 | 0.00 | 0.00 | 99 | 1009.3 |
| 20260906074725 | 22 | 59 | 0.0 | 0.0 | 0.00 | 0.00 | 0.00 | 99 | 1009.2 |
| 20260906074225 | 22 | 62 | 0.0 | 0.0 | 0.00 | 0.00 | 0.00 | 99 | 1009.2 |
| 20260906073724 | 22 | 61 | 0.0 | 0.0 | 0.00 | 0.00 | 0.00 | 99 | 1009.2 |
| 20260906073219 | 22 | 65 | 0.0 | 0.0 | 0.00 | 0.00 | 0.00 | 99 | 1009.0 |
| 20260906072715 | 21 | 67 | 0.0 | 0.0 | 0.00 | 0.00 | 0.00 | 99 | 1009.1 |
| 20260906072211 | 21 | 68 | 0.0 | 0.0 | 0.00 | 0.00 | 0.00 | 99 | 1008.8 |
| 20260906071707 | 21 | 68 | 0.0 | 0.0 | 0.00 | 0.00 | 0.00 | 99 | 1008.8 |
| 20260906071207 | 21 | 68 | 0.0 | 0.0 | 0.00 | 0.00 | 0.00 | 99 | 1008.6 |
| 20260906070703 | 21 | 68 | 0.0 | 0.0 | 0.00 | 0.00 | 0.00 | 99 | 1008.4 |
| 20260906070159 | 22 | 68 | 0.0 | 0.0 | 0.00 | 0.00 | 0.00 | 99 | 1008.5 |
| 20260906065658 | 22 | 70 | 0.0 | 0.0 | 0.00 | 0.00 | 0.00 | 99 | 1008.3 |
| 20260906065154 | 22 | 68 | 0.0 | 0.0 | 0.00 | 0.00 | 0.00 | 99 | 1008.5 |
| 20260906064648 | 22 | 68 | 0.0 | 0.0 | 0.00 | 0.00 | 0.00 | 99 | 1008.8 |
| 20260906064144 | 22 | 65 | 0.0 | 0.0 | 0.00 | 0.00 | 0.00 | 99 | 1008.9 |
| 20260906063639 | 22 | 68 | 0.0 | 0.0 | 0.00 | 0.00 | 0.00 | 99 | 1009.0 |
| 20260906063135 | 22 | 68 | 0.0 | 0.0 | 0.00 | 0.00 | 0.00 | 99 | 1008.8 |
| 20260906062631 | 22 | 68 | 0.0 | 0.0 | 0.00 | 0.00 | 0.00 | 99 | 1009.1 |
| 20260906062129 | 22 | 66 | 0.0 | 0.0 | 0.00 | 0.00 | 0.00 | 99 | 1009.1 |
| 20260906061626 | 22 | 66 | 0.0 | 0.0 | 0.00 | 0.00 | 0.00 | 99 | 1009.3 |
| 20260906061125 | 22 | 73 | 0.0 | 0.0 | 0.00 | 0.00 | 0.00 | 99 | 1009.3 |
| 20260906060622 | 22 | 62 | 0.0 | 0.0 | 0.00 | 0.00 | 0.00 | 99 | 1009.3 |
| 20260906060119 | 22 | 69 | 0.0 | 0.0 | 0.00 | 0.00 | 0.00 | 99 | 1009.1 |
| 20260906055614 | 22 | 67 | 0.0 | 0.0 | 0.00 | 0.00 | 0.00 | 99 | 1009.2 |
| 20260906055109 | 22 | 67 | 0.0 | 0.0 | 0.00 | 0.00 | 0.00 | 99 | 1009.1 |
| 20260906054604 | 22 | 65 | 0.0 | 0.0 | 0.00 | 0.00 | 0.00 | 99 | 1009.0 |
| 20260906054059 | 22 | 64 | 0.0 | 0.0 | 0.00 | 0.00 | 0.00 | 99 | 1008.9 |
| 20260906053556 | 22 | 63 | 0.0 | 0.0 | 0.00 | 0.00 | 0.00 | 99 | 1008.7 |
| 20260906053051 | 22 | 62 | 0.0 | 0.0 | 0.00 | 0.00 | 0.00 | 99 | 1009.0 |
| 20260906052546 | 22 | 65 | 0.0 | 0.0 | 0.00 | 0.00 | 0.00 | 99 | 1009.0 |
| 20260906052044 | 22 | 66 | 0.0 | 0.0 | 0.00 | 0.00 | 0.00 | 99 | 1009.0 |
| 20260906051538 | 22 | 69 | 0.0 | 0.0 | 0.00 | 0.00 | 0.00 | 99 | 1009.1 |
| 20260906051034 | 22 | 68 | 0.0 | 0.0 | 0.00 | 0.00 | 0.00 | 99 | 1009.0 |
| 20260906050529 | 22 | 68 | 0.0 | 0.0 | 0.00 | 0.00 | 0.00 | 99 | 1009.0 |
| 20260906050024 | 22 | 65 | 0.0 | 0.0 | 0.00 | 0.00 | 0.00 | 99 | 1009.1 |
| 20260906045522 | 22 | 65 | 0.0 | 0.0 | 0.00 | 0.00 | 0.00 | 99 | 1008.9 |
| 20260906042913 | 23 | 63 | 0.0 | 0.0 | 0.00 | 0.00 | 0.00 | 99 | 1008.8 |
| 20260906042411 | 23 | 63 | 0.0 | 0.0 | 0.00 | 0.00 | 0.00 | 99 | 1008.8 |
| 20260906041907 | 23 | 69 | 0.0 | 1.6 | 0.00 | 0.00 | 0.00 | 99 | 1008.8 |
| 20260906041403 | 23 | 70 | 1.6 | 1.6 | 0.00 | 0.00 | 0.00 | 99 | 1008.8 |
| 20260906040857 | 23 | 70 | 0.0 | 0.0 | 0.00 | 0.00 | 0.00 | 99 | 1008.4 |
| 20260906040352 | 23 | 68 | 0.0 | 0.0 | 0.00 | 0.00 | 0.00 | 99 | 1008.5 |
| 20260906035847 | 23 | 66 | 0.0 | 0.0 | 0.00 | 0.08 | 0.08 | 99 | 1008.9 |
| 20260906035343 | 23 | 66 | 0.0 | 0.0 | 0.00 | 0.08 | 0.08 | 99 | 1008.9 |
| 20260906034838 | 23 | 66 | 0.0 | 0.0 | 0.00 | 0.08 | 0.08 | 99 | 1008.9 |
| 20260906034333 | 23 | 61 | 0.0 | 0.0 | 0.00 | 0.08 | 0.08 | 99 | 1009.0 |
| 20260906033829 | 23 | 69 | 0.0 | 0.0 | 0.00 | 0.08 | 0.08 | 99 | 1008.8 |
| 20260906033328 | 23 | 69 | 0.0 | 0.0 | 0.00 | 0.08 | 0.08 | 99 | 1008.7 |
| 20260906032824 | 23 | 66 | 0.0 | 0.0 | 0.00 | 0.08 | 0.08 | 99 | 1008.7 |
| 20260906032320 | 23 | 68 | 0.0 | 0.0 | 0.00 | 0.08 | 0.08 | 99 | 1008.7 |
| 20260906031815 | 23 | 68 | 0.0 | 0.0 | 0.00 | 0.08 | 0.08 | 99 | 1008.8 |
| 20260906031311 | 23 | 68 | 0.0 | 0.0 | 0.00 | 0.08 | 0.08 | 99 | 1008.8 |
| 20260906030810 | 23 | 69 | 0.0 | 0.0 | 0.00 | 0.08 | 0.08 | 99 | 1009.1 |
| 20260906030305 | 23 | 69 | 0.0 | 0.0 | 0.00 | 0.08 | 0.08 | 99 | 1008.9 |
| 20260906025805 | 23 | 69 | 0.0 | 0.0 | 0.00 | 0.08 | 0.08 | 99 | 1009.1 |
| 20260906025259 | 23 | 69 | 0.0 | 0.0 | 0.00 | 0.08 | 0.08 | 99 | 1009.2 |
| 20260906024758 | 23 | 70 | 0.0 | 0.0 | 0.00 | 0.08 | 0.08 | 99 | 1009.0 |
| 20260906024257 | 23 | 69 | 0.0 | 0.0 | 0.00 | 0.08 | 0.08 | 99 | 1009.4 |
| 20260906023753 | 23 | 68 | 0.0 | 0.0 | 0.00 | 0.08 | 0.08 | 99 | 1009.2 |
| 20260906023248 | 23 | 67 | 0.0 | 0.0 | 0.00 | 0.08 | 0.08 | 99 | 1009.1 |
| 20260906022744 | 23 | 67 | 0.0 | 0.0 | 0.00 | 0.08 | 0.08 | 99 | 1009.2 |
| 20260906022239 | 23 | 67 | 0.0 | 0.0 | 0.00 | 0.08 | 0.08 | 99 | 1009.3 |
| 20260906021736 | 23 | 68 | 0.0 | 0.0 | 0.00 | 0.08 | 0.08 | 99 | 1009.2 |
| 20260906021234 | 23 | 70 | 0.0 | 0.0 | 0.00 | 0.08 | 0.08 | 99 | 1009.3 |
| 20260906020729 | 23 | 70 | 0.0 | 0.0 | 0.00 | 0.08 | 0.08 | 99 | 1009.2 |
| 20260906020223 | 23 | 70 | 1.6 | 1.6 | 0.00 | 0.08 | 0.08 | 99 | 1009.0 |
| 20260906015245 | 23 | 70 | 0.0 | 0.0 | 0.00 | 0.08 | 0.08 | 99 | 1008.9 |
| 20260906014740 | 23 | 70 | 0.0 | 0.0 | 0.00 | 0.08 | 0.08 | 99 | 1008.9 |
| 20260906014236 | 23 | 70 | 0.0 | 0.0 | 0.00 | 0.08 | 0.08 | 99 | 1008.9 |
| 20260906013732 | 23 | 70 | 0.0 | 0.0 | 0.00 | 0.08 | 0.08 | 98 | 1008.9 |
| 20260906013231 | 23 | 69 | 0.0 | 0.0 | 0.00 | 0.08 | 0.08 | 98 | 1008.9 |
| 20260906012727 | 23 | 69 | 0.0 | 0.0 | 0.00 | 0.08 | 0.08 | 98 | 1008.7 |
| 20260906012221 | 23 | 69 | 0.0 | 0.0 | 0.00 | 0.08 | 0.08 | 98 | 1008.5 |
| 20260906010939 | 23 | 70 | 0.0 | 0.0 | 0.00 | 0.08 | 0.08 | 98 | 1008.4 |
| 20260906010434 | 23 | 70 | 0.0 | 0.0 | 0.00 | 0.08 | 0.08 | 98 | 1008.4 |
| 20260906005930 | 24 | 74 | 1.6 | 1.6 | 0.00 | 0.08 | 0.08 | 98 | 1008.3 |
| 20260906005430 | 23 | 73 | 0.0 | 0.0 | 0.00 | 0.08 | 0.08 | 98 | 1008.3 |
| 20260906004928 | 24 | 73 | 0.0 | 0.0 | 0.00 | 0.08 | 0.08 | 98 | 1008.5 |
| 20260906004422 | 24 | 73 | 0.0 | 0.0 | 0.00 | 0.08 | 0.08 | 98 | 1008.2 |
| 20260906003918 | 24 | 73 | 0.0 | 0.0 | 0.00 | 0.08 | 0.08 | 98 | 1008.4 |
| 20260906003413 | 24 | 72 | 0.0 | 0.0 | 0.00 | 0.08 | 0.08 | 97 | 1008.1 |
| 20260906002909 | 24 | 73 | 0.0 | 0.0 | 0.00 | 0.08 | 0.08 | 97 | 1008.1 |
| 20260906002409 | 25 | 73 | 0.0 | 0.0 | 0.00 | 0.08 | 0.08 | 96 | 1008.1 |
| 20260906001904 | 25 | 72 | 0.0 | 0.0 | 0.00 | 0.08 | 0.08 | 96 | 1008.2 |
| 20260906001400 | 25 | 72 | 0.0 | 0.0 | 0.00 | 0.08 | 0.08 | 96 | 1008.3 |
| 20260906000859 | 25 | 73 | 0.0 | 0.0 | 0.00 | 0.08 | 0.08 | 96 | 1008.3 |
| 20260906000400 | 25 | 73 | 0.0 | 0.0 | 0.00 | 0.08 | 0.08 | 96 | 1008.4 |
| 20260905235855 | 25 | 73 | 0.0 | 0.0 | 0.00 | 0.08 | 0.08 | 95 | 1008.2 |
| 20260905235349 | 25 | 72 | 0.0 | 0.0 | 0.00 | 0.08 | 0.08 | 95 | 1008.3 |
| 20260905234844 | 25 | 72 | 0.0 | 0.0 | 0.00 | 0.08 | 0.08 | 94 | 1008.3 |
| 20260905234340 | 25 | 72 | 0.0 | 0.0 | 0.00 | 0.08 | 0.08 | 94 | 1008.4 |
| 20260905233835 | 26 | 71 | 0.0 | 0.0 | 0.00 | 0.08 | 0.08 | 93 | 1008.7 |
| 20260905233329 | 26 | 71 | 0.0 | 0.0 | 0.00 | 0.08 | 0.08 | 93 | 1008.8 |
| 20260905232829 | 26 | 71 | 0.0 | 0.0 | 0.00 | 0.08 | 0.08 | 92 | 1008.7 |
| 20260905232325 | 26 | 71 | 0.0 | 0.0 | 0.00 | 0.08 | 0.08 | 91 | 1008.6 |
| 20260905231821 | 26 | 71 | 0.0 | 0.0 | 0.00 | 0.08 | 0.08 | 91 | 1008.5 |
| 20260905231315 | 26 | 71 | 0.0 | 0.0 | 0.00 | 0.08 | 0.08 | 90 | 1008.4 |
| 20260905230812 | 26 | 71 | 0.0 | 0.0 | 0.00 | 0.08 | 0.08 | 89 | 1008.4 |
| 20260905230310 | 26 | 71 | 0.0 | 0.0 | 0.00 | 0.08 | 0.08 | 89 | 1008.3 |
| 20260905225809 | 27 | 71 | 0.0 | 0.0 | 0.00 | 0.08 | 0.08 | 89 | 1008.5 |
| 20260905225306 | 27 | 71 | 0.0 | 0.0 | 0.00 | 0.08 | 0.08 | 89 | 1008.5 |
| 20260905224804 | 27 | 71 | 0.0 | 0.0 | 0.00 | 0.08 | 0.08 | 89 | 1008.6 |
| 20260905224300 | 27 | 71 | 0.0 | 0.0 | 0.00 | 0.08 | 0.08 | 88 | 1008.3 |
| 20260905223755 | 27 | 71 | 0.0 | 0.0 | 0.00 | 0.08 | 0.08 | 88 | 1008.3 |
| 20260905223252 | 27 | 70 | 0.0 | 0.0 | 0.00 | 0.08 | 0.08 | 87 | 1008.3 |
| 20260905222747 | 27 | 70 | 0.0 | 0.0 | 0.00 | 0.08 | 0.08 | 87 | 1008.3 |
| 20260905222246 | 27 | 69 | 0.0 | 0.0 | 0.00 | 0.08 | 0.08 | 85 | 1008.4 |
| 20260905221742 | 27 | 69 | 0.0 | 0.0 | 0.00 | 0.08 | 0.08 | 85 | 1008.5 |
| 20260905221239 | 27 | 69 | 0.0 | 0.0 | 0.00 | 0.08 | 0.08 | 85 | 1008.3 |
| 20260905220734 | 27 | 69 | 0.0 | 0.0 | 0.00 | 0.08 | 0.08 | 86 | 1008.3 |
| 20260905220231 | 27 | 70 | 0.0 | 0.0 | 0.00 | 0.08 | 0.08 | 83 | 1008.3 |
| 20260905215730 | 28 | 68 | 1.6 | 1.6 | 0.00 | 0.08 | 0.08 | 82 | 1008.4 |
| 20260905215226 | 28 | 68 | 0.0 | 0.0 | 0.00 | 0.08 | 0.08 | 81 | 1008.3 |
| 20260905214721 | 28 | 40 | 3.2 | 3.2 | 0.00 | 0.08 | 0.08 | 78 | 1008.5 |
| 20260905214217 | 28 | 55 | 1.6 | 3.2 | 0.00 | 0.08 | 0.08 | 79 | 1008.4 |
| 20260905213712 | 28 | 14 | 1.6 | 3.2 | 0.00 | 0.08 | 0.08 | 75 | 1008.4 |
| 20260905213208 | 29 | 60 | 1.6 | 1.6 | 0.00 | 0.08 | 0.08 | 74 | 1008.2 |
| 20260905212703 | 29 | 47 | 4.8 | 4.8 | 0.00 | 0.08 | 0.08 | 75 | 1008.0 |
| 20260905212202 | 29 | 36 | 4.8 | 4.8 | 0.00 | 0.08 | 0.08 | 74 | 1008.3 |
| 20260905211656 | 29 | 78 | 3.2 | 3.2 | 0.00 | 0.08 | 0.08 | 75 | 1008.3 |
| 20260905211152 | 29 | 59 | 1.6 | 3.2 | 0.00 | 0.08 | 0.08 | 74 | 1008.5 |
| 20260905210648 | 29 | 67 | 0.0 | 0.0 | 0.00 | 0.08 | 0.08 | 75 | 1008.3 |
| 20260905210143 | 30 | 102 | 3.2 | 3.2 | 0.00 | 0.08 | 0.08 | 74 | 1008.3 |
| 20260905205642 | 29 | 61 | 3.2 | 3.2 | 0.00 | 0.08 | 0.08 | 74 | 1008.3 |
| 20260905205142 | 28 | 53 | 3.2 | 3.2 | 0.00 | 0.08 | 0.08 | 77 | 1008.1 |
| 20260905204641 | 28 | 100 | 3.2 | 3.2 | 0.00 | 0.08 | 0.08 | 75 | 1008.2 |
| 20260905204136 | 28 | 44 | 4.8 | 4.8 | 0.00 | 0.08 | 0.08 | 80 | 1008.2 |
| 20260905203631 | 28 | 81 | 1.6 | 3.2 | 0.00 | 0.08 | 0.08 | 79 | 1008.2 |
| 20260905203126 | 28 | 82 | 1.6 | 3.2 | 0.00 | 0.08 | 0.08 | 84 | 1008.3 |
| 20260905202622 | 28 | 72 | 0.0 | 1.6 | 0.00 | 0.08 | 0.08 | 84 | 1008.5 |
| 20260905202117 | 27 | 75 | 1.6 | 3.2 | 0.00 | 0.08 | 0.08 | 88 | 1008.1 |
| 20260905201613 | 27 | 79 | 1.6 | 3.2 | 0.00 | 0.08 | 0.08 | 87 | 1008.5 |
| 20260905201112 | 27 | 69 | 0.0 | 0.0 | 0.00 | 0.08 | 0.08 | 84 | 1008.8 |
| 20260905200608 | 27 | 64 | 0.0 | 0.0 | 0.30 | 0.08 | 0.08 | 82 | 1008.7 |
| 20260905195556 | 28 | 40 | 1.6 | 3.2 | 0.00 | 0.03 | 0.03 | 72 | 1008.9 |
| 20260905195051 | 29 | 133 | 8.0 | 9.7 | 0.00 | 0.03 | 0.03 | 70 | 1008.8 |
| 20260905194551 | 29 | 67 | 1.6 | 3.2 | 0.00 | 0.03 | 0.03 | 70 | 1008.9 |
| 20260905194050 | 30 | 97 | 3.2 | 4.8 | 0.00 | 0.03 | 0.03 | 67 | 1008.9 |
| 20260905193545 | 30 | 276 | 6.4 | 8.0 | 0.00 | 0.03 | 0.03 | 66 | 1008.8 |
| 20260905193041 | 30 | 85 | 1.6 | 3.2 | 0.00 | 0.03 | 0.03 | 67 | 1008.9 |
| 20260905192536 | 29 | 31 | 1.6 | 1.6 | 0.00 | 0.03 | 0.03 | 67 | 1008.9 |
| 20260905192032 | 30 | 260 | 8.0 | 8.0 | 0.00 | 0.03 | 0.03 | 67 | 1009.0 |
| 20260905191530 | 30 | 314 | 6.4 | 8.0 | 0.00 | 0.03 | 0.03 | 64 | 1009.2 |
| 20260905191030 | 30 | 32 | 3.2 | 3.2 | 0.00 | 0.03 | 0.03 | 68 | 1009.2 |
| 20260905190528 | 30 | 114 | 0.0 | 0.0 | 0.00 | 0.03 | 0.03 | 68 | 1009.1 |
| 20260905190028 | 30 | 72 | 1.6 | 1.6 | 0.00 | 0.03 | 0.03 | 70 | 1009.1 |
| 20260905185527 | 30 | 55 | 1.6 | 1.6 | 0.00 | 0.03 | 0.03 | 68 | 1009.3 |
| 20260905185026 | 30 | 249 | 6.4 | 8.0 | 0.00 | 0.03 | 0.03 | 69 | 1009.5 |
| 20260905184521 | 29 | 249 | 6.4 | 8.0 | 0.00 | 0.03 | 0.03 | 70 | 1009.5 |
| 20260905184019 | 29 | 337 | 1.6 | 3.2 | 0.00 | 0.03 | 0.03 | 70 | 1009.7 |
| 20260905183514 | 29 | 290 | 4.8 | 4.8 | 0.00 | 0.03 | 0.03 | 72 | 1009.7 |
| 20260905183009 | 28 | 274 | 4.8 | 4.8 | 0.00 | 0.03 | 0.03 | 74 | 1009.9 |
| 20260905182503 | 28 | 283 | 8.0 | 9.7 | 0.00 | 0.03 | 0.03 | 73 | 1009.8 |
| 20260905181957 | 28 | 68 | 1.6 | 1.6 | 0.00 | 0.03 | 0.03 | 73 | 1010.1 |
| 20260905181452 | 28 | 184 | 4.8 | 8.0 | 0.00 | 0.03 | 0.03 | 72 | 1009.8 |
| 20260905180951 | 29 | 68 | 1.6 | 1.6 | 0.00 | 0.03 | 0.03 | 73 | 1009.8 |
| 20260905180446 | 28 | 19 | 4.8 | 4.8 | 0.00 | 0.03 | 0.03 | 74 | 1009.9 |
| 20260905175942 | 28 | 244 | 6.4 | 8.0 | 0.00 | 0.03 | 0.03 | 77 | 1009.9 |
| 20260905175441 | 28 | 114 | 0.0 | 1.6 | 0.00 | 0.03 | 0.03 | 77 | 1009.9 |
| 20260905174936 | 28 | 183 | 6.4 | 9.7 | 0.00 | 0.03 | 0.03 | 76 | 1010.0 |
| 20260905174432 | 28 | 163 | 4.8 | 8.0 | 0.00 | 0.03 | 0.03 | 77 | 1009.9 |
| 20260905173927 | 27 | 20 | 6.4 | 8.0 | 0.00 | 0.03 | 0.03 | 82 | 1009.9 |
| 20260905173424 | 27 | 56 | 4.8 | 4.8 | 0.00 | 0.03 | 0.03 | 80 | 1010.2 |
| 20260905172919 | 27 | 92 | 1.6 | 3.2 | 0.00 | 0.03 | 0.03 | 80 | 1010.4 |
| 20260905172417 | 27 | 239 | 8.0 | 9.7 | 0.00 | 0.03 | 0.03 | 82 | 1010.3 |
| 20260905171913 | 27 | 221 | 3.2 | 3.2 | 0.00 | 0.03 | 0.03 | 82 | 1010.5 |
| 20260905171409 | 27 | 221 | 6.4 | 9.7 | 0.00 | 0.03 | 0.03 | 83 | 1010.4 |
| 20260905170906 | 27 | 265 | 9.7 | 11.3 | 0.00 | 0.03 | 0.03 | 83 | 1010.5 |
| 20260905170401 | 27 | 64 | 1.6 | 1.6 | 0.00 | 0.03 | 0.03 | 82 | 1010.5 |
| 20260905165901 | 27 | 176 | 4.8 | 4.8 | 0.00 | 0.03 | 0.03 | 84 | 1010.4 |
| 20260905165355 | 27 | 37 | 4.8 | 9.7 | 0.00 | 0.03 | 0.03 | 82 | 1010.3 |
| 20260905164850 | 27 | 249 | 9.7 | 11.3 | 0.00 | 0.03 | 0.03 | 81 | 1010.7 |
| 20260905164345 | 27 | 249 | 9.7 | 11.3 | 0.00 | 0.03 | 0.03 | 81 | 1010.7 |
| 20260905163841 | 27 | 165 | 1.6 | 3.2 | 0.00 | 0.03 | 0.03 | 83 | 1010.5 |
| 20260905163337 | 27 | 359 | 4.8 | 8.0 | 0.00 | 0.03 | 0.03 | 82 | 1010.7 |
| 20260905162832 | 26 | 34 | 1.6 | 1.6 | 0.00 | 0.03 | 0.03 | 85 | 1010.7 |
| 20260905162326 | 26 | 65 | 3.2 | 3.2 | 0.00 | 0.03 | 0.03 | 85 | 1010.6 |
| 20260905161827 | 26 | 74 | 3.2 | 3.2 | 0.00 | 0.03 | 0.03 | 86 | 1010.3 |
| 20260905161327 | 26 | 67 | 0.0 | 0.0 | 0.00 | 0.03 | 0.03 | 87 | 1010.5 |
| 20260905160825 | 25 | 62 | 1.6 | 1.6 | 0.00 | 0.03 | 0.03 | 90 | 1010.5 |
| 20260905160319 | 25 | 62 | 1.6 | 1.6 | 0.00 | 0.03 | 0.03 | 90 | 1010.5 |
| 20260905155813 | 25 | 61 | 0.0 | 1.6 | 0.00 | 0.03 | 0.03 | 91 | 1010.3 |
| 20260905155307 | 25 | 60 | 0.0 | 0.0 | 0.00 | 0.03 | 0.03 | 91 | 1010.1 |
| 20260905154801 | 25 | 70 | 6.4 | 8.0 | 0.00 | 0.03 | 0.03 | 90 | 1010.2 |
| 20260905154257 | 25 | 86 | 4.8 | 4.8 | 0.00 | 0.03 | 0.03 | 91 | 1010.4 |
| 20260905153752 | 24 | 66 | 1.6 | 1.6 | 0.00 | 0.03 | 0.03 | 91 | 1010.4 |
| 20260905153248 | 24 | 55 | 3.2 | 3.2 | 0.00 | 0.03 | 0.03 | 91 | 1010.2 |
| 20260905152742 | 24 | 73 | 1.6 | 3.2 | 0.00 | 0.03 | 0.03 | 92 | 1010.7 |
| 20260905152237 | 24 | 18 | 4.8 | 4.8 | 0.00 | 0.03 | 0.03 | 92 | 1010.9 |
| 20260905151736 | 23 | 63 | 4.8 | 4.8 | 0.00 | 0.03 | 0.03 | 93 | 1010.2 |
| 20260905151232 | 23 | 85 | 6.4 | 8.0 | 0.00 | 0.03 | 0.03 | 94 | 1009.8 |
| 20260905150726 | 23 | 72 | 4.8 | 4.8 | 0.00 | 0.03 | 0.03 | 95 | 1010.3 |
| 20260905150225 | 23 | 66 | 1.6 | 1.6 | 0.00 | 0.03 | 0.03 | 95 | 1010.8 |
| 20260905145723 | 23 | 59 | 0.0 | 0.0 | 0.00 | 0.03 | 0.03 | 95 | 1011.2 |
| 20260905145218 | 23 | 62 | 3.2 | 3.2 | 0.00 | 0.03 | 0.03 | 94 | 1011.1 |
| 20260905144717 | 23 | 77 | 3.2 | 3.2 | 0.00 | 0.03 | 0.03 | 94 | 1011.1 |
| 20260905144212 | 23 | 70 | 1.6 | 3.2 | 0.00 | 0.03 | 0.03 | 95 | 1010.7 |
| 20260905143712 | 23 | 63 | 4.8 | 4.8 | 0.00 | 0.03 | 0.03 | 95 | 1010.8 |
| 20260905143212 | 23 | 62 | 0.0 | 0.0 | 0.00 | 0.03 | 0.03 | 97 | 1011.3 |
| 20260905142705 | 23 | 59 | 0.0 | 0.0 | 0.00 | 0.03 | 0.03 | 97 | 1011.6 |
| 20260905142205 | 23 | 64 | 0.0 | 0.0 | 0.00 | 0.03 | 0.03 | 97 | 1011.4 |
| 20260905141701 | 23 | 58 | 3.2 | 3.2 | 0.00 | 0.03 | 0.03 | 97 | 1010.9 |
| 20260905141156 | 23 | 65 | 1.6 | 1.6 | 0.00 | 0.03 | 0.03 | 96 | 1011.1 |
| 20260905140651 | 23 | 67 | 1.6 | 3.2 | 0.00 | 0.03 | 0.03 | 97 | 1011.0 |
| 20260905140145 | 23 | 67 | 1.6 | 1.6 | 0.00 | 0.03 | 0.03 | 96 | 1011.4 |
| 20260905135640 | 22 | 40 | 1.6 | 1.6 | 0.00 | 0.03 | 0.03 | 95 | 1011.3 |
| 20260905135136 | 23 | 149 | 0.0 | 1.6 | 0.00 | 0.03 | 0.03 | 95 | 1011.7 |
| 20260905134630 | 23 | 60 | 0.0 | 0.0 | 0.00 | 0.03 | 0.03 | 97 | 1011.6 |
| 20260905134129 | 23 | 2 | 3.2 | 3.2 | 0.00 | 0.03 | 0.03 | 95 | 1011.5 |
| 20260905133625 | 22 | 77 | 3.2 | 4.8 | 0.00 | 0.03 | 0.03 | 96 | 1011.9 |
| 20260905133125 | 22 | 44 | 3.2 | 3.2 | 0.00 | 0.03 | 0.03 | 98 | 1011.9 |
| 20260905132624 | 22 | 75 | 0.0 | 0.0 | 0.00 | 0.03 | 0.03 | 99 | 1011.8 |
| 20260905132119 | 22 | 17 | 0.0 | 0.0 | 0.00 | 0.03 | 0.03 | 99 | 1011.8 |
| 20260905131614 | 22 | 50 | 0.0 | 0.0 | 0.00 | 0.03 | 0.03 | 99 | 1012.1 |
| 20260905131110 | 22 | 71 | 1.6 | 1.6 | 0.00 | 0.03 | 0.03 | 99 | 1011.9 |
| 20260905130609 | 22 | 234 | 6.4 | 8.0 | 0.00 | 0.03 | 0.03 | 99 | 1012.0 |